User: anonymous   Login
Location: Unspecified
(0.0000°N, 0.0000°E)
Time: 09:25:20
(UTC+00:00)
Language:

SAUDISAT 4 - Orbit

View from above orbital plane
View from above orbital plane
View from above satellite
View from above satellite

Ground track
Ground track

The orbit data is extracted from the following two-line orbital elements,

1 40016U 14033G   17327.57839567 +.00000073 +00000-0 +18092-4 0  9996
2 40016 097.8397 210.3247 0049411 132.5022 228.0378 14.75152943184632
Epoch (UTC): 23 November 2017 13:52:53
Eccentricity: 0.0049411
inclination: 97.8397°
perigee height: 610 km
apogee height: 679 km
right ascension of ascending node: 210.3247°
argument of perigee: 132.5022°
revolutions per day: 14.75152943
mean anomaly at epoch: 228.0378°
orbit number at epoch: 18463

The dashed part of the orbit path shows where the satellite is in the earth's shadow,  

DLR